www.pogodaiklimat.ru
ПОГОДА в Ла-Сейбе
Время
(UTC), дата
15 11.02
18 11.02
21 11.02
00 12.02
03 12.02
06 12.02
09 12.02
12 12.02
15 12.02
18 12.02
21 12.02
00 13.02
03 13.02
06 13.02
12 13.02
15 13.02
18 13.02
21 13.02
00 14.02
03 14.02
06 14.02
09 14.02
12 14.02
15 14.02
18 14.02
21 14.02
00 15.02
03 15.02
06 15.02
09 15.02
12 15.02
15 15.02
18 15.02
21 15.02
00 16.02
03 16.02
06 16.02
09 16.02
12 16.02
15 16.02
18 16.02
21 16.02
00 17.02
03 17.02
06 17.02
09 17.02
12 17.02
15 17.02
18 17.02
21 17.02
00 18.02
03 18.02
06 18.02
Ветер
(напр.,м/с)
Видим. Явления Облачность Т
(С)
Тd
(С)
f
(%)
Тe
(С)
Тes
(С)
Комфортность P
(гПа)
Po
(гПа)
Тmin
(С)
Tmax
(С)
R
(мм)
R24
(мм)
S
(см)
нст 1 12 км мгла {туман} 3/3 840 м
[Cu Sc As op Cs]
+27.9 +20.7 65 +35 +42 очень
душно
1015.4 1013.7
СВ 5 13 км мгла {туман} 3/3 800 м
[Cu hum Ac trans]
+30.9 +22.6 61 +40 +47 очень
душно
1014.3 1012.6 +19.6 +30.9
СВ 7 10 км мгла {туман} 3/3 800 м
[Cu Sc As op Cs]
+29.8 +23.4 69 +40 +42 очень
душно
1011.8 1010.1
В 4 10 км 8/6 600 м
[Cb calv Ac und Cs]
+27.8 +19.6 61 +39 +39 очень
душно
1012.0 1010.3 +19.6 +30.9
нст 1 10 км мгла {туман} 4/1 900 м
[Cu hum Ac trans]
+25.2 +23.5 90 +34 +34 очень
душно
1013.4 1011.7
нст 1 10 км мгла {туман} 1/1 900 м
[Cu hum Ac trans]
+23.7 +22.0 90 +31 +31 очень
душно
1012.9 1011.2 +19.6 +30.9
нст 1 10 км мгла {туман} 1/1 900 м
[Cu hum]
+21.2 +20.9 98 +27 +27 душно 1011.8 1010.1
нст 1 10 км мгла {туман} 6/1 900 м
[Cu hum Ac trans]
+21.2 +19.9 92 +26 +26 душно 1012.4 1010.7 +21.2 +30.9
З 2 20 км мгла {туман} 1/1 840 м
[Cu hum]
+27.7 +21.4 69 +35 +43 очень
душно
1013.8 1012.1
СЗ 3 20 км мгла {туман} 1/1 840 м
[Cu hum]
+29.9 +19.8 55 +36 +50 очень
душно
1012.9 1011.2 +21.2 +29.9
СВ 5 20 км мгла {туман} 1/1 900 м
[Cu hum]
+30.5 +22.6 63 +40 +44 очень
душно
1010.3 1008.6
В 2 10 км мгла {туман} 1/1 840 м
[Cu hum]
+28.2 +24.1 78 +39 +39 очень
душно
1010.3 1008.6 +21.2 +31.0
нст 1 10 км мгла {туман} 1/1 840 м
[St As op Cs]
+23.8 +22.1 90 +31 +31 очень
душно
1011.5 1009.8
Ю 3 10 км мгла {туман} ясно +22.0 +20.6 92 +28 +28 душно 1011.2 1009.5 +21.2 +31.0
нст 2 10 км мгла {туман} ясно +19.0 +17.5 91 +21 +21 комфорт 1011.0 1009.3 +19.0 +31.0
штиль 0 20 км мгла {туман} ясно +29.1 +21.0 62 +37 +49 очень
душно
1013.4 1011.7
С 3 20 км мгла {туман} 1/1 900 м
[Sc]
+30.2 +20.1 55 +37 +51 опасность
солнечного
удара
1012.5 1010.8 +19.0 +30.2
С 3 10 км мгла {туман} 1/1 900 м
[Sc diur, vesp]
+30.4 +19.7 53 +37 +42 очень
душно
1010.5 1008.8
В 2 10 км мгла {туман} 4/1 900 м
[Sc diur, vesp Ac trans]
+27.0 +22.0 74 +35 +35 очень
душно
1011.8 1010.1 +19.0 +30.5
штиль 0 10 км мгла {туман} 1/1 900 м
[Cu hum]
+23.1 +21.0 88 +31 +31 очень
душно
1013.9 1012.2
СВ 2 10 км мгла {туман} 5/1 840 м
[Cu hum Ac trans]
+22.1 +20.4 90 +28 +28 душно 1013.9 1012.2 +19.0 +30.5
Ю 2 10 км мгла {туман} 3/1 840 м
[Cu hum Ac trans]
+21.0 +19.9 93 +27 +27 душно 1013.9 1012.2
штиль 0 20 км мгла {туман} 1/1 900 м
[Cu hum]
+20.5 +20.1 98 +25 +25 комфорт 1014.9 1013.2 +20.5 +30.5
В 2 10 км мгла {туман} 3/3 900 м
[Cu hum Ac trans]
+27.6 +21.5 69 +35 +41 очень
душно
1017.2 1015.4
С 3 10 км мгла {туман} 8/3 900 м
[Cu hum Ac trans]
+30.2 +22.0 62 +39 +45 очень
душно
1016.0 1014.3 +20.5 +30.2
С 6 10 км мгла {туман} 4/4 900 м
[Cu hum Ac trans]
+29.3 +21.9 64 +38 +39 очень
душно
1014.1 1012.4
В 5 10 км мгла {туман} 5/4 750 м
[Cu hum Ac trans]
+27.3 +23.2 78 +37 +37 очень
душно
1014.6 1012.9 +20.5 +30.2
В 2 2000 м ливневой дождь 9/6 600 м
[Cu med, cong Ac As]
+24.4 +23.2 93 +33 +33 очень
душно
1016.7 1015.0 16
нст 1 10 км дымка {ливн. осадки, дождь} 3/3 720 м
[Sc diur, vesp]
+22.4 +21.6 95 +30 +30 очень
душно
1016.4 1014.7 +20.5 +30.2 16
нст 1 10 км дымка {туман} 8/4 800 м
[Sc diur, vesp Ac und]
+23.5 +21.6 89 +30 +30 очень
душно
1015.7 1014.0
штиль 0 10 км дымка {туман} 9/4 720 м
[Cu med, cong Ac As]
+22.4 +21.4 94 +29 +29 очень
душно
1016.5 1014.8 +21.6 +30.2 56.4
нст 1 10 км мгла {туман} 3/3 800 м
[Cu med, cong]
+27.2 +21.6 71 +35 +42 очень
душно
1017.4 1015.6
СВ 7 10 км мгла {туман} 5/4 800 м
[Cu med, cong Ac trans]
+29.8 +23.2 68 +40 +43 очень
душно
1016.3 1014.6 +21.6 +30.2
СВ 9 10 км мгла {дождь, туман} 5/5 750 м
[Cu med, cong Ac trans]
+29.7 +21.1 60 +37 +38 очень
душно
1013.7 1012.0 1
СВ 8 10 км мгла {дождь, туман} 9/5 720 м
[Cu med, cong Ac As]
+27.4 +23.0 77 +37 +37 очень
душно
1014.3 1012.6 +21.6 +30.2 1 17.2
В 3 10 км мгла {дождь, туман} 1/1 750 м
[Cu hum]
+25.4 +22.7 85 +33 +33 очень
душно
1016.1 1014.4 2
В 2 10 км мгла {дождь, туман} 1/1 750 м
[Cu hum]
+24.7 +20.0 75 +30 +30 очень
душно
1016.0 1014.3 +21.6 +30.2 2
нст 1 10 км мгла {туман} 5/1 900 м
[Cu hum Ac trans]
+20.0 +19.0 94 +24 +24 комфорт 1014.8 1013.1
нст 1 10 км мгла {туман} 4/1 900 м
[Cu hum Ac lent]
+19.9 +18.9 94 +24 +24 комфорт 1015.3 1013.6 +19.9 +30.2 1.5
штиль 0 13 км мгла {туман} 6/6 600 м
[Cb calv Ac und Cs]
+25.3 +20.9 77 +32 +38 очень
душно
1017.0 1015.3
С 4 20 км мгла {туман} 1/1 800 м
[Cu hum]
+28.2 +21.6 67 +36 +46 очень
душно
1015.1 1013.4 +19.7 +28.4
СВ 7 10 км мгла {туман} 3/3 800 м
[Cu Sc As op Cs]
+29.6 +21.7 63 +38 +40 очень
душно
1011.8 1010.1
В 6 10 км {морось} 9/6 600 м
[Cb calv Ac und Cs]
+26.8 +19.7 65 +36 +36 очень
душно
1012.2 1010.6 +19.7 +30.0 1.5
ЮВ 2 10 км мгла {туман} 3/3 800 м
[Sc diur, vesp]
+25.1 +22.1 83 +32 +32 очень
душно
1014.0 1012.3
штиль 0 10 км дымка {туман} 1/1 840 м
[Sc diur, vesp]
+22.4 +21.1 92 +29 +29 очень
душно
1013.8 1012.1 +19.7 +30.0
10 км дымка {туман} н/о +20.9 +19.7 93 +25 +25 комфорт 1012.0 1010.3
нст 1 10 км дымка {туман} 1/1 900 м
[Sc]
+20.0 +19.5 97 +25 +25 комфорт 1012.5 1010.8 +19.5 +30.0
нст 1 20 км мгла {туман} 8/3 800 м
[Cu hum Ac trans]
+25.6 +20.4 73 +32 +36 очень
душно
1014.3 1012.6
СЗ 3 10 км мгла {туман} 5/3 750 м
[Cu med, cong Ac trans]
+29.2 +21.8 64 +37 +46 очень
душно
1013.2 1011.5 +19.5 +29.5
В 7 10 км мгла {туман} 3/3 600 м
[Cu Sc As op Cs]
+29.5 +22.7 67 +39 +40 очень
душно
1010.7 1009.0
В 6 10 км мгла {туман} 4/4 720 м
[Cu med, cong Ac trans]
+27.1 +23.7 82 +37 +37 очень
душно
1011.1 1009.4 +19.5 +30.1
СВ 7 10 км мгла {туман} 5/4 720 м
[Cb calv Ac und Cs]
+26.0 +23.5 86 +35 +35 очень
душно
1013.4 1011.7
Ю 2 10 км мгла {туман} 3/3 800 м
[Cu hum]
+24.0 +22.3 90 +31 +31 очень
душно
1012.9 1011.2 +19.5 +30.1
Местоположение метеостанции Ла-Сейба (Гондурас): широта 15.73 долгота -86.86 высота над уровнем моря 26 м.
В архиве по умолчанию представлена погода в Ла-Сейбе за последнюю неделю. Архивные данные за месяц целиком и за предыдущие месяцы, начиная с января 2011 года, Вы можете получить, выбрав интересующий диапазон дат из раскрывающегося списка и нажав кнопку "Найти!".
*Определитесь, кто Вы:
Внимание! Время в таблицах - всемирное. Для получения местного времени необходимо прибавить поправку, которая равна -6 ч.
Смотрите также архив погоды в соседних городах и на ближайших метеорологических станциях:
Партнеры нашего сайта:      
Пояснения к столбцам:
  • Ветер - указаны скорость ветра в м/с - средняя за 10 мин, порывы в срок и между сроками (в фигурных скобках) и направление, откуда дует ветер: С - северный,
  • СВ - северо-восточный, В - восточный, ЮВ - юго-восточный, Ю - южный, ЮЗ - юго-западный, З - западный, СЗ - северо-западный.
  • Видимость - горизонтальная дальность видимости в метрах или километрах. При видимости от 1 до 10 км при отсутствии осадков обычно наблюдается дымка, при ухудшении видимости до 1 км и менее - туман. В сухую погоду видимость может ухудшаться дымом, пылью или мглою.
  • Явления - указаны атмосферные явления, наблюдавшиеся в срок или в последний час перед сроком; фигурными скобками обозначены явления, наблюдавшиеся между сроками (за 1-3 часа до срока); квадратными скобками обозначены град или гололедные отложения с указанием их диаметра в мм.
  • Облачность - указаны через наклонную черту общая и нижняя облачность в баллах и высота нижней границы облаков в метрах; квадратными скобками обозначены формы облаков: Ci - перистые, Cs - перисто-слоистые, Cc - перисто-кучевые, Ac - высококучевые, As - высокослоистые, Sc - слоисто-кучевые, Ns - слоисто-дождевые, Cu - кучевые, Cb - кучево-дождевые. Подробнее классификацию облаков см. в Атласе облаков (PDF).
  • T - Температура воздуха - температура, измеренная на высоте 2 м над землей.
  • Td - Температура точки росы - температура, при понижении до которой содержащийся в воздухе водяной пар достигнет насыщения.
  • f - Относительная влажность воздуха - влажноcть воздуха, измеренная на высоте 2 м над землей.
  • Te - Эффективная температура - температура, которую ощущает одетый по сезону человек в тени. Характеристика душности погоды. При расчете учитывается влияние влажности воздуха и скорости ветра на теплоощущения человека.
  • Tes - Эффективная температура на солнце - температура, которую ощущает человек, с поправкой на солнечный нагрев. Характеристика знойности погоды. Зависит от высоты солнца над горизонтом, облачности и скорости ветра. Ночью, в пасмурную погоду, а также при ветре 12 м/с и более поправка равна нулю.
  • P - Атмосферное давление - приведенное к уровню моря атмосферное давление.
  • Po - Атмосферное давление - измеренное на уровне метеостанции атмосферное давление.
  • Tmin - Минимальная температура - минимум температуры воздуха на высоте 2 м над землей.
  • Tmax - Максимальная температура - максимум температуры воздуха на высоте 2 м над землей.
  • R - Количество осадков - Количество выпавших осадков за период времени, мм. При наведении курсора мыши на число - период времени, за который выпало указанное количество осадков.
  • R24 - Количество осадков - Количество выпавших осадков за 24 часа, мм.
  • S - Снежный покров - Высота снежного покрова, см. При наведении курсора мыши на число - состояние снежного покрова и степень покрытия местности в баллах.